Overview Statistics Trail Chart Weather Telemetry Raw packets
 

This is the latest recevied weather packets stored in our database for station/object KY0TEQ-13. If no packets are shown the sender has not sent any weather packets the latest 10 day(s).

<< 13 14 15 16 17 18 19 >>
Time Temp. Humidity Pressure Rain* Wind** Luminosity Snow
1788597100 12.78° C 62% 1308.9 hPa 0 mm - 0 W/m² -
1788596796 12.78° C 62% 1308.9 hPa 0 mm - 0 W/m² -
1788596491 12.78° C 64% 1309 hPa 0 mm - 0 W/m² -
1788596185 12.78° C 64% 1308.9 hPa 0 mm - 0 W/m² -
1788595880 13.33° C 62% 1309 hPa 0 mm - 0 W/m² -
1788595575 13.89° C 60% 1309 hPa 0 mm - 0 W/m² -
1788595275 13.89° C 59% 1309.3 hPa 0 mm - 0 W/m² -
1788594974 13.89° C 60% 1309 hPa 0 mm - 0 W/m² -
1788594674 13.89° C 59% 1309 hPa 0 mm - 0 W/m² -
1788594373 13.33° C 61% 1309 hPa 0 mm - 0 W/m² -
1788594069 13.89° C 59% 1309 hPa 0 mm - 0 W/m² -
1788593764 15° C 57% 1309.1 hPa 0 mm - 0 W/m² -
1788593460 15° C 58% 1309 hPa 0 mm - 0 W/m² -
1788593159 14.44° C 58% 1309.1 hPa 0 mm - 0 W/m² -
1788592855 15° C 57% 1309 hPa 0 mm - 0 W/m² -
1788592551 13.89° C 58% 1308.9 hPa 0 mm - 0 W/m² -
1788592246 13.89° C 59% 1308.9 hPa 0 mm - 0 W/m² -
1788591941 16.11° C 53% 1308.8 hPa 0 mm - 0 W/m² -
1788591637 15.56° C 54% 1308.8 hPa 0 mm - 0 W/m² -
1788591335 15.56° C 54% 1308.6 hPa 0 mm - 0 W/m² -
1788591055 15.56° C 56% 1308.8 hPa 0 mm - 0 W/m² -
1788590730 15.56° C 55% 1308.6 hPa 0 mm - 0 W/m² -
1788590426 16.11° C 54% 1308.8 hPa 0 mm - 0 W/m² -
1788590124 16.11° C 54% 1308.6 hPa 0 mm - 0 W/m² -
1788589822 15.56° C 55% 1308.4 hPa 0 mm - 0 W/m² -

* Rain latest hour (hover to see other rain measurements)
** Current wind speed in m/s (hover to see current wind gust speed)